Lapse_Rate
7.9 7.8 7.6 7.6 7.7 7.8 7.6 7.3 7.2 7.1 6.9 6.7 6.6 6.7 6.9 6.9 6.9 6.9 6.8 6.8 6.7 6.7 6.5 6.5 6.4 6.3 6.4 6.3 6.3 6.3 6.2 6.1 6.1 6.2 6.0 5.9 5.9 5.8 5.8 5.7 5.8 5.8 5.8
7.7 7.8 7.7 7.7 7.8 8.0 7.6 7.4 7.1 7.0 6.8 6.6 6.5 6.5 6.7 6.7 6.8 6.8 6.7 6.7 6.6 6.5 6.5 6.5 6.4 6.3 6.4 6.3 6.3 6.2 6.3 6.1 5.9 5.9 6.0 5.9 5.8 5.8 5.7 5.8 6.0 5.9 6.0
7.5 7.8 7.8 7.9 7.9 7.8 7.7 7.3 7.2 7.0 6.9 6.7 6.6 6.6 6.6 6.7 6.6 6.6 6.7 6.6 6.6 6.6 6.5 6.5 6.5 6.4 6.4 6.3 6.4 6.3 6.3 6.2 6.1 6.0 5.9 5.9 6.0 5.9 5.8 5.9 6.0 6.0 6.0
7.5 7.7 7.8 7.6 7.7 7.8 7.7 7.5 7.3 7.2 7.1 6.9 6.7 6.6 6.5 6.6 6.6 6.7 6.7 6.7 6.8 6.8 6.8 6.7 6.6 6.6 6.5 6.4 6.4 6.5 6.3 6.3 6.3 6.4 6.1 6.0 5.8 5.9 5.9 5.9 5.9 6.0 5.9
7.8 7.6 7.5 7.6 7.7 7.7 7.7 7.5 7.3 7.2 7.1 6.9 6.7 6.6 6.5 6.5 6.5 6.5 6.6 6.6 6.8 6.9 6.9 6.8 6.7 6.7 6.7 6.6 6.6 6.6 6.5 6.5 6.4 6.4 6.3 6.2 5.9 5.9 6.0 6.0 6.0 5.9 6.0
7.5 7.5 7.5 7.6 7.6 7.5 7.4 7.4 7.4 7.2 7.2 7.0 6.9 6.7 6.6 6.5 6.6 6.6 6.6 6.6 6.6 6.7 6.7 6.6 6.8 6.8 6.8 6.7 6.7 6.7 6.6 6.6 6.6 6.6 6.6 6.4 6.1 6.1 6.1 6.0 6.0 6.0 6.1
7.2 7.2 7.2 7.2 7.2 7.2 7.3 7.3 7.3 7.3 7.4 7.3 7.1 6.9 6.8 6.7 6.7 6.7 6.7 6.6 6.5 6.5 6.6 6.8 6.8 6.7 6.9 6.9 6.8 6.7 6.8 6.7 6.6 6.6 6.6 6.5 6.2 6.3 6.3 6.1 6.0 6.1 6.0
6.9 7.0 7.0 7.1 7.1 7.1 7.3 7.4 7.3 7.3 7.3 7.2 7.2 7.1 7.0 6.8 6.8 6.8 6.6 6.6 6.6 6.6 6.7 6.8 6.8 6.8 6.8 6.7 6.6 6.6 6.7 6.8 6.7 6.6 6.6 6.6 6.5 6.4 6.5 6.3 6.2 6.0 5.9
7.0 7.0 7.1 7.0 7.1 7.1 7.3 7.4 7.3 7.3 7.2 7.2 7.2 7.1 6.9 7.0 7.1 7.0 6.8 6.8 6.7 6.7 6.6 6.6 6.8 6.8 6.7 6.7 6.7 6.6 6.6 6.6 6.6 6.8 6.7 6.6 6.5 6.5 6.4 6.4 6.2 6.3 6.1
7.0 7.0 7.1 7.1 7.1 7.2 7.3 7.3 7.4 7.2 7.0 7.0 7.0 7.0 6.9 6.9 6.9 7.1 7.0 6.8 6.8 6.6 6.7 6.8 6.7 6.6 6.6 6.6 6.6 6.5 6.5 6.5 6.5 6.6 6.8 6.9 6.8 6.6 6.7 6.4 6.2 6.3 6.2
7.1 7.0 7.2 7.1 7.1 7.1 7.2 7.2 7.3 7.2 7.0 6.9 6.9 6.9 6.8 6.9 7.0 7.0 7.1 6.9 7.0 7.0 6.9 6.8 6.7 6.8 6.7 6.6 6.5 6.6 6.7 6.7 6.6 6.6 6.6 6.7 6.7 6.8 6.6 6.3 6.1 6.3 6.4
7.3 7.4 7.2 7.2 7.0 7.0 7.2 7.2 7.1 7.3 6.8 6.9 6.9 6.8 6.7 6.7 6.8 7.0 7.1 7.2 7.2 7.0 6.9 6.7 6.7 6.9 7.0 7.0 7.0 7.0 7.1 6.9 6.8 6.7 6.7 6.6 6.7 6.5 6.4 6.4 6.5 6.5 6.3
7.3 7.3 7.2 7.1 7.0 7.0 7.2 7.1 6.9 7.1 6.9 6.6 6.7 6.6 6.6 6.5 6.6 6.7 7.0 7.2 7.2 7.1 6.9 6.8 6.9 7.0 7.1 7.2 7.3 7.3 7.4 7.3 7.3 7.1 6.7 6.9 6.8 6.4 6.5 6.5 6.4 6.5 6.5
7.4 7.3 7.2 7.3 7.1 7.1 7.1 7.0 6.8 6.9 6.9 6.6 6.6 6.6 6.5 6.4 6.4 6.6 6.8 6.9 7.0 7.2 7.1 6.9 6.9 6.9 7.0 7.1 7.2 7.3 7.4 7.4 7.3 7.3 7.2 6.6 6.1 6.4 6.5 6.8 6.6 6.4 6.4
7.5 7.4 7.3 7.3 7.1 7.0 6.9 6.8 6.7 6.9 7.0 6.7 6.5 6.6 6.4 6.3 6.3 6.4 6.6 6.6 6.6 6.9 6.9 6.9 7.0 7.0 7.0 7.1 7.2 7.3 7.4 7.4 7.5 7.5 7.1 6.9 6.9 6.6 6.4 6.6 6.9 6.6 6.3
7.6 7.4 7.4 7.2 7.1 6.8 6.7 6.7 6.7 6.7 6.8 6.8 6.8 6.7 6.6 6.5 6.5 6.6 6.6 6.5 6.5 6.6 6.6 6.7 6.7 6.8 6.8 7.0 7.0 7.1 7.2 7.3 7.4 7.4 7.4 7.2 6.9 6.8 6.6 6.3 6.6 6.8 6.7
7.7 7.4 7.3 7.2 7.0 6.8 6.7 6.6 6.2 6.2 6.6 6.7 6.8 6.7 6.7 6.6 6.6 6.6 6.5 6.5 6.5 6.5 6.6 6.7 6.7 6.7 6.9 6.9 7.0 7.0 7.0 7.1 7.2 7.2 7.3 7.2 7.2 7.0 6.8 6.4 6.3 6.5 6.8
7.7 7.6 7.4 7.2 7.0 6.8 6.5 6.4 6.3 6.2 6.3 6.4 6.6 6.7 6.7 6.6 6.5 6.5 6.4 6.5 6.5 6.5 6.5 6.5 6.7 6.8 6.9 7.0 7.1 7.0 7.0 7.0 7.0 7.0 7.1 7.2 7.1 7.1 6.9 6.8 6.6 6.2 6.4
7.8 7.6 7.3 7.0 6.9 6.6 6.5 6.5 6.3 6.1 6.0 6.1 6.4 6.4 6.4 6.5 6.5 6.4 6.3 6.2 6.2 6.2 6.2 6.3 6.4 6.6 6.8 6.9 7.1 7.1 7.0 7.0 7.0 7.0 7.1 7.1 7.1 7.0 6.9 6.9 7.0 6.9 6.5
7.6 7.5 7.0 6.6 6.5 6.6 6.6 6.5 6.3 5.9 5.8 6.2 6.2 6.2 6.1 6.2 6.2 6.0 6.0 6.0 6.0 6.0 6.1 6.2 6.3 6.5 6.6 6.8 7.0 7.0 6.9 6.9 7.0 7.1 7.1 7.1 7.1 7.0 6.9 6.9 6.9 6.9 6.9
7.6 7.3 7.0 6.8 6.8 6.7 6.5 6.3 6.0 5.8 6.1 6.2 6.1 6.1 5.9 6.0 6.0 5.8 5.7 5.7 5.9 6.0 6.0 6.1 6.2 6.3 6.3 6.4 6.6 6.7 6.6 6.6 6.7 6.8 6.9 7.0 7.1 7.1 7.0 6.9 6.7 6.8 6.8
7.6 7.3 7.0 6.6 6.4 6.5 6.6 6.4 6.1 6.2 6.2 6.1 6.1 6.0 6.0 5.9 6.0 5.7 5.6 5.7 5.8 5.9 6.0 6.0 6.1 6.1 6.2 6.3 6.3 6.4 6.8 6.9 6.5 6.5 6.6 6.8 7.0 7.1 7.0 6.9 6.9 6.8 6.7
7.7 7.4 7.1 6.8 6.5 6.5 6.4 6.3 6.2 5.9 6.0 6.0 6.0 6.0 6.0 6.1 6.2 6.0 5.9 5.8 5.7 5.8 5.9 5.9 6.0 6.0 6.1 6.0 5.9 6.0 6.2 6.5 7.1 7.2 6.6 6.3 6.4 6.6 6.7 6.8 6.7 6.8 6.7
7.7 7.6 7.0 6.8 6.6 6.6 6.4 6.3 6.2 6.1 6.0 5.9 5.8 5.7 5.6 5.8 5.8 5.7 5.7 5.7 5.7 5.5 5.5 5.6 5.7 5.8 5.9 5.9 5.9 5.8 5.7 5.7 5.9 6.7 7.4 7.2 6.7 6.1 6.1 6.3 6.5 6.4 6.4
7.7 7.8 7.2 7.0 6.8 6.5 6.4 6.2 6.2 6.0 5.8 5.7 5.6 5.6 5.5 5.3 5.3 5.2 5.2 5.2 5.3 5.4 5.4 5.5 5.6 5.7 5.6 5.6 5.6 5.8 5.7 5.6 5.4 5.1 5.5 6.6 7.0 6.9 6.5 6.3 6.0 5.8 6.0
8.1 7.9 7.6 7.1 6.9 6.7 6.6 6.3 6.1 6.1 6.0 5.8 5.6 5.4 5.3 5.2 5.1 5.1 5.1 5.1 5.2 5.3 5.4 5.4 5.5 5.6 5.6 5.6 5.5 5.4 5.4 5.4 5.5 5.4 5.4 5.3 5.4 6.6 6.9 6.7 6.5 6.1 5.5
Wind_Speed
5 7 7 10 13 14 14 12 13 13 12 12 11 11 11 10 10 10 9 9 8 8 8 8 7 8 8 8 8 9 8 7 8 8 8 8 5 3 3 3 1 5 6
9 9 10 11 13 13 12 12 12 13 11 11 10 10 10 10 10 8 7 7 7 7 7 6 5 5 6 6 7 6 6 5 6 8 9 8 7 5 1 3 5 7 9
10 11 11 13 15 14 13 12 12 12 12 11 11 10 9 9 8 7 7 6 5 5 6 6 5 4 4 4 5 6 6 6 6 6 8 8 7 6 4 3 6 9 10
11 11 12 16 15 15 14 13 12 12 12 12 12 11 11 10 8 7 6 5 5 5 5 5 6 7 5 4 4 4 5 6 7 7 7 7 6 7 6 6 7 9 10
11 13 13 13 13 14 14 13 13 13 13 13 12 10 9 9 9 8 7 6 5 5 5 5 5 5 5 5 5 5 6 6 8 7 8 6 8 6 7 8 9 11 11
10 12 12 12 13 14 14 13 13 13 14 14 13 11 10 9 8 8 8 7 7 6 5 6 5 5 6 6 6 6 6 7 8 6 7 9 7 6 8 9 11 11 11
8 11 10 12 13 14 15 14 13 14 14 14 16 15 12 10 10 10 8 7 8 8 7 6 7 7 6 6 7 8 8 8 8 7 5 6 6 9 12 12 13 14 12
8 9 11 13 14 15 15 14 14 14 15 15 17 18 18 17 15 17 9 9 9 9 10 8 8 9 8 8 8 9 10 11 9 9 7 7 8 11 14 15 14 15 14
9 8 9 11 13 12 13 13 14 15 17 17 17 17 17 18 18 20 19 18 17 13 12 11 12 11 12 12 11 11 12 14 11 10 9 8 9 13 15 17 16 16 16
6 6 7 8 9 10 10 13 13 16 18 18 17 18 18 18 18 20 19 20 20 20 19 18 19 16 13 14 14 14 14 16 13 12 11 11 14 14 16 19 19 18 18
5 5 5 6 7 8 10 11 14 17 16 16 16 17 18 16 17 16 18 20 22 21 21 20 19 21 21 14 13 13 14 10 12 10 11 14 15 14 18 20 21 21 20
6 4 5 6 7 8 11 12 14 15 16 17 17 18 16 17 14 14 15 19 18 19 18 18 18 17 16 13 12 13 10 9 8 9 12 15 16 15 19 21 22 22 21
7 5 6 6 7 9 8 11 10 12 14 13 16 17 17 14 14 14 14 13 13 15 13 14 14 13 14 12 12 12 14 13 9 9 12 17 17 18 20 23 24 24 24
8 7 6 7 5 7 9 8 8 8 11 9 13 16 14 9 10 10 9 10 10 13 11 12 10 12 13 14 13 12 12 11 12 12 11 15 18 19 22 26 26 27 26
10 6 6 6 6 5 6 6 6 6 9 11 13 16 16 9 4 9 9 9 10 12 11 8 9 8 8 11 11 10 10 12 13 12 14 22 22 22 20 22 28 28 28
10 8 6 6 5 6 4 5 4 9 13 12 13 14 16 13 8 7 6 8 11 12 12 9 7 6 6 8 8 10 9 10 12 12 13 15 23 22 21 19 26 26 28
11 11 9 7 6 6 5 5 5 8 13 9 11 16 16 15 12 9 5 5 10 13 13 11 10 9 6 6 8 8 8 11 10 12 12 12 15 19 20 20 18 24 27
13 11 9 8 7 5 4 3 5 8 11 9 13 15 15 14 15 11 5 4 11 11 10 5 6 6 5 6 7 8 7 7 9 10 10 12 13 13 13 19 21 21 19
12 12 9 8 8 5 3 4 4 8 8 9 13 13 14 14 15 11 7 7 11 7 5 5 5 6 6 8 9 9 8 7 6 7 8 9 12 16 15 17 20 23 21
12 13 10 6 7 5 4 4 4 4 5 9 9 11 12 13 14 12 9 9 9 4 5 5 5 5 5 8 9 7 9 6 4 3 9 9 10 15 16 16 18 18 22
11 12 10 9 7 5 3 3 3 3 3 4 7 11 11 13 14 12 7 7 7 5 5 6 5 8 7 10 5 6 3 5 2 8 7 7 9 14 13 17 15 16 19
13 12 10 9 8 6 4 3 2 3 4 4 5 10 12 14 14 11 7 5 6 5 7 7 9 7 4 8 8 5 5 4 5 14 5 6 12 7 11 16 17 17 16
13 12 11 9 8 7 7 4 4 4 4 3 4 3 7 15 13 12 11 8 6 6 6 5 8 10 7 8 10 4 4 4 13 3 12 7 13 9 10 11 13 16 18
8 11 11 10 9 7 8 8 8 4 4 2 3 3 7 13 12 13 12 10 8 4 5 5 7 7 6 7 6 7 6 7 4 8 3 12 8 11 11 10 8 15 19
14 13 11 10 9 8 8 8 6 7 4 4 4 7 6 8 15 13 13 12 7 5 5 8 8 8 6 5 6 7 7 7 7 7 13 12 11 7 8 10 12 8 17
12 11 10 12 8 8 8 8 8 8 7 6 5 5 4 4 5 11 12 10 10 7 6 7 8 9 8 7 6 6 6 6 9 9 13 14 13 13 10 8 10 8 15
Wind_Direction
104 124 119 102 95 91 87 87 85 87 88 93 92 87 86 85 76 68 61 57 48 46 60 58 53 41 47 46 39 29 27 13 1 358 353 336 327 344 31 357 68 104 111
122 111 109 102 96 91 92 86 82 80 79 80 78 83 86 88 86 79 70 57 43 39 41 51 50 35 30 27 24 20 20 4 351 350 337 326 309 273 100 77 113 117 131
104 99 98 89 84 84 81 80 80 79 74 71 68 61 62 68 73 74 71 63 52 34 31 31 24 34 14 17 9 4 1 352 336 351 328 324 309 271 171 165 133 130 135
97 89 90 86 86 83 78 77 74 73 67 57 53 52 45 44 45 44 45 42 33 21 19 18 15 23 7 354 354 352 345 339 331 339 325 321 310 270 181 171 152 153 159
99 98 99 98 94 90 82 77 73 69 64 58 48 40 38 32 26 22 18 11 7 2 357 0 3 3 357 344 334 336 332 329 327 329 318 319 312 221 181 172 168 169 167
99 90 90 95 96 96 91 82 75 71 66 60 47 38 30 23 18 11 7 359 351 343 335 335 335 340 343 340 325 320 314 314 312 314 318 318 307 204 171 177 173 171 168
99 101 107 112 109 102 92 86 80 72 66 56 40 33 24 20 15 6 6 2 357 352 337 327 323 316 313 314 309 306 299 292 291 294 293 309 310 208 170 179 173 176 179
123 139 139 125 113 104 100 93 83 74 63 56 45 37 37 37 31 22 22 21 12 355 343 332 313 298 294 289 287 286 287 287 286 283 283 277 279 207 179 184 178 177 176
141 151 150 129 112 110 104 97 90 81 72 58 49 39 33 31 32 33 30 17 9 359 345 333 322 310 301 295 288 285 285 287 285 278 284 275 274 209 190 189 180 177 177
147 149 148 127 120 107 105 93 80 81 74 61 50 46 36 34 35 34 30 20 16 16 22 20 12 353 326 314 301 295 290 288 280 274 271 262 260 225 197 192 185 186 183
126 133 120 98 119 113 89 95 86 83 74 63 52 49 45 37 35 32 28 20 19 27 29 23 22 19 19 3 346 325 318 285 266 258 253 254 248 249 210 194 187 190 190
146 138 113 94 95 95 92 90 84 85 82 69 63 56 53 42 36 33 30 31 34 26 22 15 15 16 12 360 350 342 327 321 286 267 264 254 253 251 218 203 194 194 194
151 131 130 113 97 103 96 94 87 86 92 75 68 63 54 41 32 29 24 29 31 20 15 13 8 10 10 9 359 351 342 334 316 297 283 291 273 248 218 209 203 198 196
147 145 138 117 105 107 107 102 107 92 102 77 69 62 59 40 20 15 20 22 22 18 10 7 15 10 12 7 1 351 346 342 332 317 300 308 303 277 251 214 203 202 200
136 136 131 116 109 119 99 107 92 87 94 97 73 65 61 48 32 18 15 25 22 23 25 21 16 10 8 360 354 348 338 332 330 331 326 316 307 299 282 227 209 204 202
133 128 131 113 106 113 98 110 99 99 100 96 81 76 61 58 39 29 24 19 22 24 21 16 6 10 3 356 347 339 327 325 324 320 320 320 314 301 285 281 218 215 209
146 140 130 113 89 80 84 114 112 111 105 98 88 82 70 57 51 46 38 31 22 20 17 11 14 6 360 350 343 332 328 320 316 315 314 307 305 301 289 288 267 229 220
140 138 130 114 100 92 100 111 97 102 106 101 91 81 72 58 59 58 53 38 29 24 22 10 6 6 355 343 336 330 317 316 313 316 317 319 312 309 301 287 282 280 261
138 127 121 120 116 125 85 64 68 95 102 101 95 84 76 66 61 62 60 44 37 33 26 6 2 358 357 351 335 323 316 309 309 332 345 348 349 2 352 333 305 280 270
142 131 125 116 110 94 69 86 81 89 91 84 96 89 84 77 67 62 53 45 39 30 21 12 7 0 351 342 325 314 311 296 314 22 356 353 3 2 357 357 351 337 307
134 127 131 124 119 114 103 101 86 97 94 68 75 86 78 76 71 66 56 43 38 42 30 12 4 6 2 352 343 331 308 316 171 5 347 350 6 355 3 355 346 354 343
144 139 129 124 118 109 111 114 100 115 79 101 77 68 68 68 68 61 51 41 35 34 31 20 17 4 355 3 356 306 345 332 351 335 354 347 357 355 350 344 344 339 339
142 137 128 127 113 102 105 105 90 83 70 45 29 48 46 77 71 66 62 54 40 41 31 16 20 12 355 2 355 18 344 333 327 308 332 360 338 348 337 335 332 338 331
131 117 117 112 103 89 94 91 95 111 115 97 80 59 61 69 56 62 59 53 48 36 33 17 16 11 2 353 354 3 334 317 326 320 339 324 344 329 331 319 330 332 321
126 124 120 107 98 96 94 101 105 98 92 92 72 66 58 55 50 50 46 42 35 26 27 19 10 5 3 352 346 344 335 319 303 303 304 322 318 321 320 335 318 308 317
119 119 116 110 107 99 94 89 93 101 100 83 68 67 54 59 54 43 47 40 33 37 25 15 7 2 358 354 349 341 336 327 317 315 307 312 311 318 321 301 318 314 318